Location: Arbon
(43.0005°N, 0.7472°E)
Time: 22:53:22
(UTC+00:00)

Explorer 7 - Pass Details

Date: 03 December 2020
Orbit: 484 x 678 km, 50.3° (Epoch: 26 January)

Event Time Altitude Azimuth Distance (km) Brightness Sun altitude
Rises 04:53:19 0° 299° (WNW) 2,832 - -24.5°
Reaches altitude 10° 04:55:43 10° 305° (NW) 1,893 - -24.0°
Exits shadow 04:59:47 51° 14° (NNE) 704 7.3 -23.3°
Maximum altitude 04:59:56 51° 22° (NNE) 700 7.3 -23.3°
Drops below altitude 10° 05:03:52 10° 99° (E) 1,773 10.5 -22.6°
Sets 05:06:03 0° 104° (ESE) 2,631 11.8 -22.2°
